#timestamp,LO_Frequency,Hit,StdDev 
1685451615.2,286047001.1,N
1685451635.0,286047000.7,N
1685451635.9,286047000.7,N
1685451655.8,286047000.8,N
1685451675.6,286047001.0,N
1685451695.5,286046998.3,N
1685451715.3,286047001.2,N
1685451735.1,286047001.0,N
1685451755.9,286046998.5,N
1685451775.7,286046998.5,N
1685451795.6,286047001.2,N
1685451815.4,286046998.6,N
1685451835.2,286046998.6,N
1685451855.1,286047001.1,N
1685451856.0,286047001.1,N
1685451875.8,286047001.2,N
1685451895.6,286046998.1,N
1685451915.5,286047001.2,N
1685451935.3,286047000.8,N
1685451955.2,286047000.7,N
1685451975.9,286047000.5,N
1685451995.7,286046998.1,N
1685452015.6,286046998.6,N
1685452035.4,286047000.9,N
1685452055.2,286047000.7,N
1685452075.1,286047000.6,N
1685452076.0,286047000.6,N
1685452095.8,286047000.8,N
1685452115.7,286047001.1,N
1685452135.5,286046998.1,N
1685452155.3,286047000.0,N
1685452175.2,286047000.5,N
1685452195.0,286046998.5,N
1685452195.9,286046998.5,N
1685452215.7,286046998.2,N
1685452235.6,286047000.7,N
1685452255.4,286047001.1,N
1685452275.3,286047001.1,N
1685452295.1,286047000.7,N
1685452296.0,286047000.7,N
1685452315.8,286046999.9,N
1685452335.7,286047000.5,N
1685452355.5,286047000.1,N
1685452375.3,286047000.0,N
1685452395.2,286047000.6,N
1685452415.0,286047001.1,N
1685452415.9,286047001.1,N
1685452435.8,286047000.6,N
1685452455.6,286047000.4,N
1685452475.4,286046999.9,N
1685452495.3,286047000.2,N
1685452515.1,286047001.2,N
1685452535.9,286046998.5,N
1685452555.7,286047000.8,N
1685452575.5,286047000.5,N
1685452595.4,286047000.7,N
1685452615.2,286047000.6,N
1685452635.0,286047001.2,N
1685452635.9,286047001.2,N
1685452655.8,286047000.5,N
1685452675.6,286047000.5,N
1685452695.5,286047000.3,N
1685452715.3,286046999.9,N
1685452735.1,286047002.8,Y
1685452755.9,286047002.4,P
1685452775.7,286047000.2,N
1685452795.5,286047000.7,N
1685452815.4,286047000.6,N
1685452835.2,286046998.1,N
1685452855.1,286047000.2,N
1685452856.0,286047000.2,N
1685452875.8,286047001.0,N
1685452895.6,286047000.3,N
1685452915.5,286046999.7,N
1685452935.3,286047000.3,N
1685452955.1,286047000.3,N
1685452975.9,286047000.3,N
1685452995.7,286047000.1,N
1685453015.6,286047002.8,Y
1685453035.4,286047002.2,P
1685453055.2,286047000.1,N
1685453075.1,286047002.8,N
1685453076.0,286047002.8,N
1685453095.8,286047000.4,N
1685453115.7,286047002.4,N
1685453135.5,286047001.1,N
1685453155.3,286047000.2,N
1685453175.2,286046998.2,N
1685453195.0,286047001.0,N
1685453195.9,286047001.0,N
1685453215.8,286046998.5,N
1685453235.6,286046998.6,N
1685453255.4,286047001.1,N
1685453275.3,286047000.3,N
1685453295.1,286047000.8,N
1685453315.9,286047001.1,N
1685453335.7,286046998.5,N
1685453355.5,286046998.5,N
1685453375.4,286047000.9,N
1685453395.2,286046999.9,N
1685453415.0,286047002.2,N
1685453416.0,286047002.2,N
1685453435.8,286047002.1,N
1685453455.6,286047002.6,N
1685453475.5,286047002.1,N
1685453495.3,286047001.3,N
1685453515.1,286047002.7,N
1685453535.9,286047001.9,N
1685453555.7,286047002.7,N
1685453575.6,286047002.4,N
1685453595.4,286047001.7,N
1685453615.2,286047002.2,N
1685453635.1,286047001.5,N
1685453636.0,286047001.5,N
1685453655.8,286047001.6,N
1685453675.7,286047001.5,N
1685453695.5,286046999.8,N
1685453715.3,286047000.0,N
1685453735.2,286047002.5,N
1685453755.0,286047002.8,N
1685453755.9,286047002.8,N
1685453775.7,286047002.6,N
1685453795.6,286046999.8,N
1685453815.4,286047000.1,N
1685453835.3,286046999.8,N
1685453855.1,286047002.6,N
1685453875.8,286047002.6,N
1685453895.7,286047001.9,N
1685453915.5,286047000.0,N
1685453935.4,286047001.0,N
1685453955.2,286047000.6,N
1685453975.0,286047000.7,N
1685453975.9,286047000.7,N
1685453995.8,286046998.2,N
1685454015.6,286046998.1,N
1685454035.5,286047000.8,N
1685454055.3,286047001.1,N
1685454075.1,286047000.8,N
1685454095.9,286047000.3,N
1685454115.7,286047000.5,N
1685454135.5,286047000.4,N
1685454155.4,286047002.8,N
1685454175.2,286047001.0,N
1685454195.1,286046998.7,N
1685454196.0,286046998.7,N
1685454215.8,286046998.4,N
1685454235.6,286046998.7,N
1685454255.5,286046999.6,N
1685454275.3,286046999.6,N
1685454295.1,286046999.5,N
1685454315.9,286046999.5,N
1685454335.7,286046997.8,N
1685454355.6,286046997.4,N
1685454375.4,286046997.5,N
1685454395.2,286046995.7,N
1685454415.1,286046995.3,N
1685454416.0,286046995.3,N
1685454435.8,286046995.4,N
1685454455.6,286046997.1,N
1685454475.5,286046997.0,N
1685454495.3,286046996.8,N
1685454515.2,286046997.9,N
1685454535.9,286046997.4,N
1685454555.7,286046997.2,N
1685454575.6,286046997.8,N
1685454595.4,286046997.5,N
1685454615.2,286046997.7,N
1685454635.1,286046997.2,N
1685454636.0,286046997.2,N
1685454655.8,286046997.9,N
1685454675.7,286046995.1,N
1685454695.5,286046996.3,N
1685454715.3,286046993.5,Y
1685454735.2,286046997.9,P
1685454755.0,286046997.9,P
1685454755.9,286046997.9,P
1685454775.8,286046997.4,Y
1685454795.6,286046998.7,P
1685454815.4,286046999.0,N
1685454835.3,286046999.6,N
1685454855.1,286046997.9,Y
1685454875.9,286046999.2,P
1685454895.7,286046998.8,P
1685454915.5,286046999.1,P
1685454935.4,286046999.2,Y
1685454955.2,286046998.3,P
1685454975.0,286046998.1,P
1685454976.0,286046998.1,P
1685454995.8,286046999.4,N
1685455015.6,286046999.0,N
1685455035.5,286046998.4,Y
1685455055.3,286047000.1,P
1685455075.1,286046999.8,N
1685455095.9,286046999.9,N
1685455115.7,286047000.0,N
1685455135.6,286047001.0,N
1685455155.4,286046998.6,N
1685455175.2,286046998.7,N
1685455195.1,286047001.2,N
1685455196.0,286047001.2,N
